Tracking 19193 objects as of 24-Jun-2018
HD Live streaming from Space Station
objects crossing your sky now

FENGYUN 1C DEB

Track FENGYUN 1C DEB now!
10-day predictions


NORAD ID: 36180
Int'l Code: 1999-025DTD
Perigee: 688.3 km
Apogee: 1,022.4 km
Inclination: 98.4 °
Period: 101.9 minutes
Semi major axis: 7226 km
RCS: 0.0053 m2 (small)
Launch date: May 10, 1999
Source: People's Republic of China (PRC)
Launch site: Taiyaun Space Center, China (TSC)

Note: This is SATELLITE DEBRIS
aabbcc
Your satellite tracking list
Your tracking list is empty




NASA's NSSDC Master Catalog

Two Line Element Set (TLE):
1 36180U 99025DTD 18152.19519295 +.00000087 +00000-0 +53132-4 0  9994
2 36180 098.3949 308.0853 0231133 034.4529 327.1386 14.13272963316636
Source of the keplerian elements: AFSPC